TimeCDT,TemperatureF,Dew PointF,Humidity,Sea Level PressureIn,VisibilityMPH,Wind Direction,Wind SpeedMPH,Gust SpeedMPH,PrecipitationIn,Events,Conditions,WindDirDegrees,DateUTC
12:52 AM,57.0,55.9,96,29.94,4.0,SE,5.8,-,N/A,,Overcast,140,2013-05-09 05:52:00
1:12 AM,57.2,55.4,94,29.94,3.0,SE,6.9,-,N/A,,Overcast,130,2013-05-09 06:12:00
1:52 AM,57.0,55.0,93,29.92,3.0,SE,4.6,-,N/A,,Overcast,130,2013-05-09 06:52:00
2:22 AM,57.2,55.4,94,29.93,3.0,SE,5.8,-,N/A,,Overcast,130,2013-05-09 07:22:00
2:33 AM,57.2,55.4,94,29.93,2.5,ESE,4.6,-,N/A,,Overcast,110,2013-05-09 07:33:00
2:52 AM,57.0,55.9,96,29.92,2.5,Calm,Calm,-,N/A,,Overcast,0,2013-05-09 07:52:00
3:01 AM,57.2,55.4,94,29.93,3.0,Calm,Calm,-,N/A,,Overcast,0,2013-05-09 08:01:00
3:11 AM,57.2,55.4,94,29.93,3.0,Calm,Calm,-,N/A,,Overcast,0,2013-05-09 08:11:00
3:31 AM,57.2,55.4,94,29.92,2.5,Calm,Calm,-,N/A,,Overcast,0,2013-05-09 08:31:00
3:52 AM,57.0,55.0,93,29.91,2.0,Calm,Calm,-,N/A,,Overcast,0,2013-05-09 08:52:00
4:21 AM,57.2,55.4,94,29.91,3.0,Calm,Calm,-,N/A,,Overcast,0,2013-05-09 09:21:00
4:37 AM,55.4,55.4,100,29.91,3.0,Calm,Calm,-,N/A,,Overcast,0,2013-05-09 09:37:00
4:52 AM,55.9,54.0,93,29.91,2.5,NNE,4.6,-,N/A,,Overcast,20,2013-05-09 09:52:00
5:52 AM,55.9,55.0,97,29.91,2.5,NE,5.8,-,N/A,,Overcast,40,2013-05-09 10:52:00
6:15 AM,55.4,55.4,100,29.91,1.0,ENE,5.8,-,N/A,,Overcast,60,2013-05-09 11:15:00
6:22 AM,55.4,55.4,100,29.91,0.5,NE,6.9,-,N/A,Fog,Fog,50,2013-05-09 11:22:00
6:52 AM,55.9,55.0,97,29.93,0.8,NE,6.9,-,N/A,,Mist,50,2013-05-09 11:52:00
7:01 AM,55.4,55.4,100,29.93,1.2,ENE,6.9,-,N/A,,Overcast,60,2013-05-09 12:01:00
7:18 AM,55.4,55.4,100,29.93,1.8,NE,5.8,-,N/A,,Overcast,50,2013-05-09 12:18:00
7:31 AM,55.4,55.4,100,29.93,2.0,NE,6.9,-,N/A,,Overcast,50,2013-05-09 12:31:00
7:50 AM,57.2,55.4,94,29.93,3.0,NE,8.1,-,0.01,,Overcast,40,2013-05-09 12:50:00
7:52 AM,57.0,55.9,96,29.93,3.0,NE,9.2,-,0.01,,Overcast,40,2013-05-09 12:52:00
8:41 AM,59.0,55.4,88,29.93,6.0,ENE,11.5,-,N/A,,Overcast,60,2013-05-09 13:41:00
8:52 AM,59.0,55.9,90,29.93,7.0,ENE,12.7,-,N/A,,Overcast,60,2013-05-09 13:52:00
9:01 AM,60.8,55.4,82,29.93,7.0,ENE,15.0,-,N/A,,Overcast,60,2013-05-09 14:01:00
9:52 AM,59.0,55.9,90,29.93,7.0,NNE,15.0,-,N/A,,Overcast,20,2013-05-09 14:52:00
10:52 AM,57.9,55.0,90,29.95,6.0,NNE,16.1,-,N/A,,Overcast,20,2013-05-09 15:52:00
11:52 AM,57.0,55.0,93,29.95,2.5,NNE,15.0,21.9,N/A,,Overcast,20,2013-05-09 16:52:00
12:14 PM,57.2,55.4,94,29.96,3.0,NNE,15.0,-,N/A,,Overcast,20,2013-05-09 17:14:00
12:21 PM,57.2,55.4,94,29.96,4.0,NNE,17.3,-,N/A,,Overcast,30,2013-05-09 17:21:00
12:32 PM,57.2,55.4,94,29.95,5.0,NNE,17.3,-,N/A,,Overcast,20,2013-05-09 17:32:00
1:52 PM,59.0,54.0,83,29.95,7.0,NNE,17.3,-,N/A,,Overcast,30,2013-05-09 18:52:00
2:30 PM,57.2,53.6,88,29.95,7.0,NNE,20.7,-,N/A,,Overcast,30,2013-05-09 19:30:00
3:52 PM,63.0,52.0,67,29.94,10.0,NE,21.9,29.9,0.00,,Overcast,40,2013-05-09 20:52:00
4:52 PM,61.0,52.0,72,29.94,10.0,NNE,19.6,28.8,N/A,,Overcast,20,2013-05-09 21:52:00
5:30 PM,60.8,51.8,72,29.95,10.0,NNE,23.0,-,N/A,,Mostly Cloudy,20,2013-05-09 22:30:00
5:39 PM,60.8,51.8,72,29.95,10.0,NNE,18.4,28.8,N/A,,Mostly Cloudy,20,2013-05-09 22:39:00
5:52 PM,59.0,52.0,78,29.96,10.0,NNE,23.0,-,N/A,,Overcast,20,2013-05-09 22:52:00
7:52 PM,53.1,48.0,83,30.01,10.0,North,19.6,-,N/A,,Overcast,10,2013-05-10 00:52:00
9:52 PM,48.9,44.1,83,30.04,10.0,North,20.7,26.5,N/A,,Overcast,10,2013-05-10 02:52:00
10:52 PM,48.0,44.1,86,30.05,10.0,NNE,20.7,28.8,N/A,,Overcast,20,2013-05-10 03:52:00
11:52 PM,46.9,42.1,83,30.06,10.0,NNE,19.6,25.3,N/A,,Overcast,20,2013-05-10 04:52:00